{"data":{"norad_id":56324,"intl_designator":"2023-058H","name":"STARLINK-6034","alt_names":[],"object_type":"PAYLOAD","status":"ACTIVE","operator":null,"country":"US","launch_date":"2023-04-27","launch_site_code":"AFWTR","launch_vehicle":null,"mission":null,"orbit_class":"UNKNOWN","rcs_meters":null,"size_class":null,"mass_kg":null,"dimensions":null,"purposes":["comms"],"wikipedia_slug":null,"has_3d_model":false,"image_url":null,"decayed_at":null,"tle_current":{"epoch":"2026-09-20T23:21:12.237120Z","epoch_age_seconds":67935,"freshness":"FRESH","line1":"1 56324U 23058H   26263.97305830  .00000439  00000+0  15916-4 0  9993","line2":"2 56324  97.2844 260.6620 0001666  88.4484 271.6950 15.33436416187353","mean_motion":15.33436416,"eccentricity":0.0001666,"inclination_deg":97.2844,"raan_deg":260.662,"arg_perigee_deg":88.4484,"mean_anomaly_deg":271.695,"bstar":1.5916e-5,"rev_number":18735,"period_min":93.906730332926,"perigee_km":464.42855316987,"apogee_km":466.70887591396,"semimajor_km":6843.7057145419,"source":"CELESTRAK","updated_at":"2026-09-21T09:00:33.401841Z"}}}